Printer-friendly version

IAU Minor Planet Center

Minor Planet Center

MPEC 2005-K28 : COMET C/2005 G1 (LINEAR)

The following Minor Planet Electronic Circular may be linked-to from your own Web pages, but must not otherwise be redistributed electronically.


Read MPEC 2005-K27 Read MPEC 2005-K29


M.P.E.C. 2005-K28                                Issued 2005 May 23, 15:11 UT

     The Minor Planet Electronic Circulars contain information on unusual
         minor planets and routine data on comets.  They are published
   on behalf of Commission 20 of the International Astronomical Union by the
          Minor Planet Center, Smithsonian Astrophysical Observatory,
                          Cambridge, MA 02138, U.S.A.

                  Supported in part by the Brinson Foundation
             Prepared using the Tamkin Foundation Computer Network

                              MPC@CFA.HARVARD.EDU
          URL http://cfa-www.harvard.edu/iau/mpc.html  ISSN 1523-6714

                           COMET C/2005 G1 (LINEAR)

Observations:
    CK05G010  C2005 05 03.71164 17 45 13.61 +54 19 02.1                 EK028349
    CK05G010  C2005 05 03.72247 17 45 12.79 +54 19 10.1                 EK028349
    CK05G010  C2005 05 03.73329 17 45 11.86 +54 19 19.1          18.4 T EK028349
    CK05G010  C2005 05 15.69685 17 27 01.75 +56 44 59.8          18.3 T EK028360
    CK05G010  C2005 05 15.70035 17 27 01.45 +56 45 01.7                 EK028360
    CK05G010  C2005 05 15.70733 17 27 00.68 +56 45 06.5                 EK028360

Observer details:
349 Ageo.  Observer K. Kadota.  0.25-m f/5.0 reflector + CCD.
360 Kuma Kogen.  Observer A. Nakamura.  0.60-m f/5.8 Ritchey-Chretien + CCD.

Orbital elements:
    C/2005 G1 (LINEAR)
T 2006 Feb. 27.2825 TT                                  MPC
q   4.960510             (2000.0)            P               Q
                   Peri.  113.8182      -0.4507255      -0.3408685
                   Node   299.5944      -0.1540313      +0.9400572
e   1.0            Incl.  108.4147      +0.8792729      -0.0100536
From 134 observations 2005 Mar. 22-May 15.

Ephemeris:
    C/2005 G1 (LINEAR)
Date    TT    R. A. (2000) Decl.     Delta      r     Elong.  Phase   m1    m2
2005 05 20    17 19.45   +57 29.5    5.143    5.415   100.2    10.6  18.9
2005 05 30    17 00.06   +58 53.3    5.131    5.385    99.1    10.7  18.9
2005 06 09    16 38.98   +59 46.6    5.135    5.356    97.1    10.8  18.8
2005 06 19    16 17.51   +60 08.0    5.154    5.328    94.3    11.0  18.8
2005 06 29    15 57.02   +59 59.2    5.185    5.301    91.0    11.1  18.8
2005 07 09    15 38.65   +59 24.6    5.225    5.274    87.2    11.1  18.8
2005 07 19    15 23.12   +58 30.0    5.271    5.249    83.2    11.1  18.8
2005 07 29    15 10.68   +57 21.7    5.319    5.225    79.2    11.0  18.8

Brian G. Marsden             (C) Copyright 2005 MPC           M.P.E.C. 2005-K28

Read MPEC 2005-K27 Read MPEC 2005-K29


Our Web policy. Index to the CBAT/MPC/ICQ pages.


Valid HTML 4.01!